Location: Spring Creek
(38.2870°N, 100.2160°W)
Time: 23:16:53
(UTC+00:00)

Cosmos 371 Rocket - Pass Details

Date: 08 May 2021
Orbit: 684 x 699 km, 74.0° (Epoch: 21 June)

Event Time Altitude Azimuth Distance (km) Brightness Sun altitude
Exits shadow 08:46:00 42° 112° (ESE) 982 4.1 -26.9°
Maximum altitude 08:46:16 43° 103° (ESE) 976 4.1 -26.8°
Drops below altitude 10° 08:50:52 10° 32° (NNE) 2,161 6.9 -26.3°
Sets 08:53:16 0° 26° (NNE) 3,084 7.9 -26.0°
